www.pogodaiklimat.ru

Погода и климат >> Архив погоды >> Канада >> Stefansson Island


ПОГОДА в Stefansson Island

  • Прогноз погоды в Stefansson Island
  • Монитор погоды в Stefansson Island
  • Климат города

АРХИВ ПОГОДЫ в Stefansson Island

Время (UTC), дата Ветер
(напр.,м/с)
 
Видим.   Явления Облачность Т
(С)
Тd
(С)
f
(%)
Тe
(С)
Тes
(С)
Комфортность P
(гПа)
Po
(гПа)
Тmin
(С)
Tmax
(С)
R
(мм)
R24
(мм)
S
(см)
03 19.05 В 3 н/о {осадки} н/о -2.4 -3.8 90 -7 -7 1007.4 1006.0 0.6
06 19.05 СВ 2 н/о {осадки} н/о -3.2 -4.2 93 -7 -7 1008.5 1007.1 -3.7 -0.7 0.6
09 19.05 СВ 3 н/о н/о -3.2 -4.1 93 -8 -8 1010.0 1008.6
12 19.05 СВ 3 н/о н/о -3.6 -4.6 93 -9 -9 1011.3 1009.9 -3.7 -0.7
15 19.05 С 3 н/о {осадки} н/о -2.2 -5.2 80 -7 -7 1012.6 1011.2 0.2
18 19.05 СВ 1 н/о {осадки} н/о -0.8 -6.4 66 -3 -3 1013.6 1012.2 -3.7 -0.5 0.2
21 19.05 В 1 н/о н/о -0.7 -6.6 64 -2 -2 1014.8 1013.4
00 20.05 ЮЗ 2 н/о н/о -1.6 -5.5 75 -5 -5 1016.2 1014.8 -3.7 +1.5
03 20.05 В 1 н/о н/о -3.1 -5.4 84 -5 -5 1017.0 1015.6
06 20.05 ЮВ 3 н/о н/о -4.7 -5.4 95 -10 -10 1017.9 1016.5
09 20.05 Ю 2 н/о н/о -4.1 -5.4 91 -8 -8 1019.0 1017.6
12 20.05 Ю 3 н/о н/о -4.0 -5.6 89 -10 -10 1020.1 1018.6
15 20.05 Ю 5 н/о н/о -3.6 -6.2 82 -10 -10 1021.0 1019.5
18 20.05 Ю 5 н/о н/о -2.3 -5.5 79 -9 -9 1021.4 1019.9 -2.0
21 20.05 Ю 6 н/о н/о -3.0 -6.7 76 -10 -10 1022.7 1021.2
00 21.05 Ю 3 н/о н/о -2.2 -6.8 71 -7 -7 1023.2 1021.7 -4.7 -1.7
03 21.05 Ю 4 н/о н/о -3.8 -6.3 83 -10 -10 1023.2 1021.7
06 21.05 ЮВ 5 н/о н/о -4.8 -6.8 86 -12 -12 1023.1 1021.6 6
09 21.05 Ю 5 н/о н/о -5.2 -7.2 86 -12 -12 1022.9 1021.4
12 21.05 Ю 7 н/о н/о -5.7 -6.8 92 -14 -14 1023.1 1021.6
15 21.05 В 5 н/о н/о -3.3 -5.4 85 -10 -10 1021.6 1020.1
18 21.05 ЮВ 8 н/о н/о -1.9 -4.5 82 -10 -10 1020.7 1019.2 -1.2
21 21.05 В 9 н/о н/о -0.2 -0.7 96 -8 -8 1019.2 1017.8 0.3
00 22.05 Ю 18 н/о {осадки} н/о -0.6 -0.9 98 -11 -11 1016.5 1015.1 -6.6 +0.5 2
03 22.05 Ю 17 н/о н/о -1.0 -1.3 98 -12 -12 1014.4 1013.0 2
06 22.05 Ю 17 н/о {осадки} н/о -1.0 -1.3 98 -12 -12 1013.3 1011.9 -6.6 +0.5 7 5
09 22.05 Ю 14 н/о н/о -0.7 -1.0 98 -11 -11 1013.1 1011.7 2
12 22.05 Ю 12 н/о {осадки} н/о -0.1 -0.4 98 -9 -9 1011.8 1010.4 -1.1 +0.5 5
15 22.05 Ю 8 н/о н/о -0.1 -0.4 98 -8 -8 1011.0 1009.6 1
18 22.05 Ю 12 н/о н/о +1.4 -1.1 83 -7 -7 1008.8 1007.4 -2.1 +1.6 1
21 22.05 Ю 13 н/о н/о +1.5 -0.7 85 -7 -7 1006.7 1005.3
00 23.05 Ю 12 н/о н/о +3.9 +0.1 76 -3 -3 1006.2 1004.8 -1.1 +4.6
03 23.05 Ю 2 н/о н/о +2.8 -1.1 75 +1 +1 1005.7 1004.3
06 23.05 Ю 3 н/о н/о +0.3 -0.5 94 -5 -5 1005.6 1004.2 -1.1 +6.5 7
09 23.05 ЮЗ 4 н/о н/о -0.7 -1.5 94 -6 -6 1005.2 1003.8
12 23.05 Ю 4 н/о н/о -0.0 -1.4 90 -6 -6 1004.9 1003.5 -0.8 +6.5
15 23.05 Ю 4 н/о н/о +1.3 -1.1 84 -4 -4 1004.9 1003.5
18 23.05 ЮВ 5 н/о н/о +0.8 -0.8 89 -5 -5 1004.9 1003.5 -0.8 +1.6
21 23.05 ЮВ 6 н/о н/о +0.8 -0.9 88 -5 -5 1005.3 1003.9
00 24.05 В 5 н/о н/о +0.4 -0.6 93 -6 -6 1006.0 1004.6 -0.8 +1.6
03 24.05 В 5 н/о н/о +0.2 -0.5 95 -6 -6 1006.6 1005.2 0.2
06 24.05 В 5 н/о н/о +0.2 -0.7 94 -6 -6 1007.3 1005.9 -0.8 +1.6 0.2
09 24.05 В 4 н/о н/о -0.2 -0.9 95 -6 -6 1008.1 1006.7
12 24.05 В 3 н/о н/о +0.1 -1.3 90 -5 -5 1009.0 1007.6 -0.3 +1.6
15 24.05 СВ 4 н/о н/о +0.8 -1.9 82 -4 -4 1009.8 1008.4
18 24.05 СВ 4 н/о н/о +0.9 -1.5 84 -4 -4 1010.6 1009.2 -0.3 +1.1
21 24.05 СВ 5 н/о н/о +0.6 -2.0 83 -5 -5 1011.5 1010.1
00 25.05 СВ 5 н/о {осадки} н/о +0.1 -1.8 87 -6 -6 1012.5 1011.1 -0.3 +1.2 0.2
03 25.05 СВ 5 н/о н/о -0.4 -2.0 89 -7 -7 1013.4 1012.0
06 25.05 СВ 5 н/о н/о -1.4 -3.1 88 -8 -8 1014.1 1012.7 -1.4 +1.2
09 25.05 СВ 5 н/о н/о -2.5 -4.0 89 -9 -9 1014.8 1013.4
12 25.05 СВ 7 н/о н/о -2.6 -4.3 88 -10 -10 1015.5 1014.1 -2.7 +1.2
15 25.05 СВ 8 н/о н/о -2.9 -4.5 89 -11 -11 1016.2 1014.8
18 25.05 В 8 н/о н/о -0.5 -2.7 85 -8 -8 1016.7 1015.3 -3.0 -0.5
21 25.05 В 7 н/о н/о -0.1 -2.9 81 -7 -7 1017.4 1016.0
00 26.05 В 7 н/о н/о -0.5 -2.8 84 -8 -8 1018.1 1016.7 -3.0 +0.4 0.2

 

Местоположение метеостанции Stefansson Island (Канада): широта 73.77 долгота -105.20 высота над уровнем моря 11 м.

В архиве по умолчанию представлена погода в Stefansson Island за последнюю неделю. Архивные данные за месяц целиком и за предыдущие месяцы, начиная с января 2011 года, Вы можете получить, выбрав интересующий диапазон дат из раскрывающегося списка и нажав кнопку "Ввод!".

Внимание! Время в таблицах - всемирное. Для получения местного времени необходимо прибавить поправку, которая в Stefansson Island равна -7 ч.

Смотрите также архив погоды в соседних городах и на ближайших метеорологических станциях:

Погода в Resolute Airport (Канада) (326 км)
Погода в Resolute Cs (Канада) (326 км)
Погода в Aulvik Ntl Park (Канада) (453 км)
Погода в Mould Bay Cs (Канада) (488 км)
Погода в Mould Bay, N. W. T. (Канада) (488 км)
Погода в Cambridge Bay Gsn (Канада) (519 км)
Погода в Cambridge Bay Arpt (Канада) (519 км)
Погода в Cape Peel West (Канада) (535 км)
Погода в Holman (Канада) (542 км)
Погода в Isachsen (aut) (Канада) (559 км)

Пояснения к столбцам:

Ветер - указаны скорость ветра в м/с - средняя за 10 мин, порывы в срок и между сроками (в фигурных скобках) и направление, откуда дует ветер: С - северный, СВ - северо-восточный, В - восточный, ЮВ - юго-восточный, Ю - южный, ЮЗ - юго-западный, З - западный, СЗ - северо-западный.
Видимость - горизонтальная дальность видимости в метрах или километрах. При видимости от 1 до 10 км при отсутствии осадков обычно наблюдается дымка, при ухудшении видимости до 1 км и менее - туман. В сухую погоду видимость может ухудшаться дымом, пылью или мглою.
Явления - указаны атмосферные явления, наблюдавшиеся в срок или в последний час перед сроком; фигурными скобками обозначены явления, наблюдавшиеся между сроками (за 1-3 часа до срока); квадратными скобками обозначены град или гололедные отложения с указанием их диаметра в мм.
Облачность - указаны через наклонную черту общая и нижняя облачность в баллах и высота нижней границы облаков в метрах; квадратными скобками обозначены формы облаков: Ci - перистые, Cs - перисто-слоистые, Cc - перисто-кучевые, Ac - высококучевые, As - высокослоистые, Sc - слоисто-кучевые, Ns - слоисто-дождевые, Cu - кучевые, Cb - кучево-дождевые. Подробнее классификацию облаков см. в Атласе облаков (PDF).
T - Температура воздуха - температура, измеренная на высоте 2 м над землей.
Td - Температура точки росы - температура, при понижении до которой содержащийся в воздухе водяной пар достигнет насыщения.
f - Относительная влажность воздуха - влажноcть воздуха, измеренная на высоте 2 м над землей.
Te - Эффективная температура - температура, которую ощущает одетый по сезону человек в тени. Характеристика душности погоды. При расчете учитывается влияние влажности воздуха и скорости ветра на теплоощущения человека.
Tes - Эффективная температура на солнце - температура, которую ощущает человек, с поправкой на солнечный нагрев. Характеристика знойности погоды. Зависит от высоты солнца над горизонтом, облачности и скорости ветра. Ночью, в пасмурную погоду, а также при ветре 12 м/с и более поправка равна нулю.
P - Атмосферное давление - приведенное к уровню моря атмосферное давление.
Po - Атмосферное давление - измеренное на уровне метеостанции атмосферное давление.
Tmin - Минимальная температура - минимум температуры воздуха на высоте 2 м над землей.
Tmax - Максимальная температура - максимум температуры воздуха на высоте 2 м над землей.
R - Количество осадков - Количество выпавших осадков за период времени, мм. При наведении курсора мыши на число - период времени, за который выпало указанное количество осадков.
R24 - Количество осадков - Количество выпавших осадков за 24 часа, мм.
S - Снежный покров - Высота снежного покрова, см. При наведении курсора мыши на число - состояние снежного покрова и степень покрытия местности в баллах.